Kuchera_Ratio
3.0 3.4 5.5 5.3 6.1 6.8 8.1 9.8 12.7 13.5 10.5 10.0 11.4 4.5 3.0 1.8 0.3 0.0 0.0 0.0 0.0 0.0 0.0 0.0 0.0 0.0 0.0 0.0 0.0 0.0 0.0 0.0 0.0 0.0 0.0 0.0 0.0 0.0
4.0 5.2 5.6 5.5 6.0 6.7 7.8 9.3 11.3 13.0 14.9 8.8 8.0 5.4 3.5 1.1 0.1 0.0 0.5 0.0 0.0 0.0 0.0 0.0 0.0 0.0 0.0 0.0 0.0 0.0 0.0 0.0 0.0 0.0 0.0 0.0 0.0 0.0
4.2 5.5 6.0 5.5 7.2 8.1 8.7 10.1 11.5 12.0 13.8 10.7 6.5 5.3 5.9 5.6 3.8 2.7 1.7 2.3 1.6 0.0 0.0 0.0 0.0 0.0 0.0 0.0 0.0 0.0 0.0 0.0 0.0 0.0 0.0 0.0 0.0 0.0
5.4 6.4 7.5 4.1 9.0 9.4 10.6 11.6 11.9 10.2 12.2 13.5 9.9 8.0 7.7 5.6 5.3 5.4 3.9 1.4 3.2 0.0 0.0 0.0 0.0 0.0 0.0 0.0 0.0 0.0 0.0 0.0 0.0 0.0 0.0 0.0 0.0 0.0
7.2 8.5 8.8 9.5 11.4 11.5 11.8 11.4 10.6 6.3 8.4 10.9 12.0 7.6 7.1 5.8 8.6 6.9 7.0 6.3 3.3 0.0 0.0 0.0 0.0 0.0 0.0 0.0 0.0 0.0 0.0 0.0 0.0 0.0 0.0 0.0 0.0 0.0
8.2 8.9 9.7 10.5 11.3 11.7 9.7 8.0 6.0 9.7 9.9 10.8 10.3 11.5 10.2 8.6 9.7 12.1 12.1 8.8 9.2 4.4 2.3 0.9 0.0 0.0 0.0 0.0 0.0 0.0 0.0 0.0 0.0 0.0 0.0 0.0 0.0 0.0
8.8 9.3 9.3 7.2 1.2 1.6 3.2 6.7 7.3 9.6 10.2 11.7 12.3 12.4 13.2 12.8 13.4 12.0 12.4 11.6 10.4 7.3 8.6 7.1 6.7 7.0 6.4 2.8 2.1 0.8 0.5 0.0 0.0 0.0 0.0 0.0 0.0 0.0
10.1 10.0 10.9 5.8 6.9 0.8 1.0 0.4 1.3 7.2 11.5 12.6 13.4 13.7 13.4 12.9 12.0 12.7 12.9 13.8 14.9 7.0 10.8 10.7 7.8 9.5 8.0 7.4 2.7 1.2 0.0 0.0 0.0 0.0 0.0 0.0 0.0 0.0
10.1 11.2 9.4 5.4 6.0 9.9 6.1 1.9 3.7 2.2 2.8 8.7 13.0 13.4 13.4 12.3 12.3 13.3 13.3 13.6 14.0 10.7 11.2 13.8 10.1 12.3 8.5 6.3 2.7 1.8 0.6 0.0 0.0 0.0 0.0 0.0 0.0 0.0
9.9 10.5 11.4 11.5 10.4 5.0 5.7 8.8 11.1 9.3 8.8 7.8 9.6 9.2 9.4 7.8 8.8 10.3 12.8 12.6 12.2 10.7 9.6 15.8 12.3 13.4 10.4 8.5 3.7 2.2 1.2 0.3 0.0 0.0 0.0 0.0 0.0 0.0
10.0 10.8 11.2 8.1 3.5 0.3 6.3 10.8 10.8 10.8 5.3 3.3 3.5 2.8 3.4 3.7 5.1 10.3 14.2 15.3 15.9 14.3 12.2 13.9 13.8 13.9 12.9 12.1 8.7 3.5 1.3 0.0 0.0 0.0 0.0 0.0 0.0 0.0
8.7 9.5 4.2 4.6 1.4 1.8 6.0 9.7 13.6 12.8 12.3 10.6 11.6 11.1 9.4 10.3 6.2 11.5 13.7 16.4 16.4 16.8 12.8 14.8 14.7 14.0 15.5 11.2 10.5 8.2 9.2 3.7 1.9 1.1 0.6 0.0 0.0 1.5
9.6 8.7 8.6 3.4 1.5 2.2 2.9 11.3 11.7 6.4 9.4 13.3 13.5 13.2 12.6 12.6 12.6 13.0 13.1 14.9 16.3 16.5 13.0 13.2 14.7 14.7 14.8 14.9 11.8 9.2 8.1 8.3 8.9 8.3 4.4 3.0 2.4 2.0
9.1 9.2 8.2 2.7 3.9 4.8 7.4 6.0 4.7 6.8 13.2 14.1 14.7 14.5 14.7 15.0 14.6 14.2 13.9 14.0 13.7 14.5 13.5 13.9 14.8 14.5 14.8 15.0 14.7 11.2 9.9 8.8 9.9 10.8 9.5 6.6 4.5 4.0
7.7 5.3 4.2 5.4 6.8 10.2 8.9 7.3 8.1 13.6 14.5 15.6 15.5 15.7 15.5 15.2 15.1 15.2 14.7 14.3 14.2 13.8 12.5 12.7 13.1 13.1 13.2 13.7 14.2 13.4 12.3 10.6 9.1 10.6 10.2 10.5 11.4 11.3
6.2 9.9 8.8 9.5 10.0 11.0 12.4 12.6 13.2 13.5 14.0 15.3 16.1 15.6 15.4 15.9 16.2 15.8 16.3 15.7 15.5 15.1 11.8 9.8 10.7 11.2 13.1 12.9 13.1 13.4 11.6 13.0 7.9 6.4 7.0 6.6 9.9 9.7
7.7 13.0 14.3 14.7 15.2 14.9 14.5 14.2 13.8 14.0 15.2 15.6 16.2 16.4 16.4 16.4 16.7 15.7 16.1 15.9 16.8 15.7 14.7 11.9 8.2 9.1 10.1 12.2 13.1 12.3 10.8 9.1 7.4 7.3 7.0 8.4 10.6 10.1
13.1 15.7 16.1 16.0 16.3 16.0 16.0 15.7 15.1 15.0 15.7 16.0 16.5 16.7 17.3 17.4 16.8 16.0 16.3 16.7 16.7 15.5 15.3 12.4 12.6 12.6 11.7 9.4 6.5 10.6 8.3 9.1 7.6 6.9 6.9 8.5 8.5 10.0
15.8 16.4 16.8 16.7 16.7 16.4 16.4 16.6 17.1 16.1 16.0 16.7 17.2 17.4 16.6 16.8 16.7 17.2 17.0 16.7 16.5 15.4 13.6 13.0 13.4 13.7 14.9 15.2 10.0 1.8 10.0 8.5 7.5 7.2 7.1 7.6 7.9 7.3
16.1 16.8 17.1 16.7 16.7 17.0 16.8 16.9 16.9 16.7 16.8 17.1 16.7 16.7 17.3 17.2 17.5 17.4 16.8 16.7 15.5 14.0 14.4 13.2 13.2 13.7 13.5 14.5 14.0 10.9 5.0 8.0 8.1 8.3 8.2 6.8 4.5 0.0
16.6 16.8 16.4 16.7 16.8 16.6 16.7 16.9 17.0 17.1 16.2 16.5 17.3 17.1 17.0 17.1 17.4 16.7 16.4 13.4 12.8 15.0 15.2 14.4 13.0 7.1 11.2 10.8 11.7 10.9 7.8 3.9 5.0 7.5 7.5 8.3 8.5 6.8
16.6 16.8 16.5 16.4 16.7 17.1 17.2 17.2 17.4 17.3 17.5 17.2 17.1 16.9 16.8 16.6 16.8 16.2 15.5 15.3 14.9 14.3 14.7 14.2 12.3 12.2 12.8 13.6 13.1 12.3 10.1 7.6 3.3 1.7 3.3 4.4 9.3 12.3
16.9 16.7 16.9 16.9 17.0 17.3 17.3 17.6 17.7 17.5 17.2 17.1 17.1 16.8 16.3 16.4 15.4 15.0 14.6 14.2 13.4 14.2 14.9 14.6 13.7 12.8 13.2 12.9 12.2 12.7 12.0 10.5 9.4 8.8 7.3 2.9 2.4 3.1